RH
69 66 62 61 62 62 60 54 63 75 81 78 69 57 50 47 50 46 45 53 50 52 52 52 52 53 53 57 54 55 56 58 58 57 56 57 58 59
68 66 64 65 65 67 66 59 64 65 78 65 53 55 48 41 52 44 47 56 53 52 52 52 52 55 57 52 55 55 56 58 57 57 58 60 60 59
67 66 68 68 73 71 72 65 66 66 68 59 50 46 50 49 46 48 50 46 47 53 52 50 56 51 51 54 54 55 57 58 58 59 61 62 61 59
72 71 69 63 68 66 68 69 71 58 62 59 50 47 48 46 49 49 44 47 52 49 51 55 51 52 54 55 56 58 59 58 60 62 63 62 60 59
72 68 66 62 62 61 56 59 63 55 56 58 57 57 59 54 56 58 60 56 47 55 54 56 55 55 58 58 59 59 60 64 63 63 61 60 60 60
79 73 62 59 60 60 53 57 57 65 62 63 59 60 61 65 61 57 58 59 57 53 57 56 59 59 61 62 61 63 65 64 64 61 59 60 61 60
88 76 72 68 67 56 51 56 58 66 63 65 68 67 64 64 57 63 58 64 63 66 60 54 55 53 54 57 59 63 66 64 61 60 61 62 61 61
81 72 73 77 70 63 65 67 68 66 65 60 64 56 61 60 64 64 66 66 58 69 64 54 57 53 52 50 60 66 66 62 59 62 62 63 62 62
79 79 73 67 75 76 71 67 63 60 56 58 56 56 62 60 63 70 70 69 64 64 65 58 56 54 52 45 62 66 64 59 61 63 64 63 63 64
78 74 73 80 76 73 75 76 78 72 68 58 64 65 63 66 67 67 68 66 63 66 67 65 63 55 51 50 60 67 59 60 63 63 65 64 65 64
81 75 77 77 78 78 80 82 78 76 70 72 71 74 74 74 70 69 71 66 63 60 68 60 54 60 56 56 51 62 60 63 65 66 66 66 66 64
87 84 81 82 82 79 78 80 91 83 78 77 75 74 68 67 68 63 66 69 70 68 70 72 70 73 72 56 54 53 51 62 64 66 68 66 65 60
90 93 87 88 85 77 82 84 80 75 74 69 64 61 61 62 64 65 65 68 76 74 59 73 83 77 80 75 59 54 53 54 54 56 64 64 68 67
96 97 97 95 79 88 86 75 78 74 68 68 69 70 70 74 76 74 72 70 70 70 62 69 91 88 90 85 74 59 58 56 55 55 55 60 66 68
91 96 93 90 96 79 71 74 77 72 74 76 77 77 77 79 78 80 75 72 81 71 58 72 85 86 89 94 90 79 79 64 60 62 61 61 62 62
95 97 97 90 75 72 70 76 68 68 71 75 76 76 79 79 80 83 83 86 87 79 65 73 76 78 92 83 84 89 74 87 72 71 69 67 63 59
97 97 97 96 92 82 74 70 71 70 75 73 78 79 78 78 82 85 90 94 93 88 83 77 73 77 82 91 94 84 87 84 74 77 75 79 74 72
95 94 94 93 86 74 73 74 71 74 74 76 79 81 86 89 91 91 92 94 93 88 89 85 85 86 79 70 70 87 80 83 81 82 82 86 82 76
84 93 94 92 87 74 78 81 81 76 80 82 86 89 90 89 93 92 92 92 90 88 87 88 90 96 93 92 67 59 84 85 83 88 85 86 89 77
85 92 94 93 80 80 82 84 84 84 86 88 88 89 91 91 93 93 91 95 92 89 92 88 91 92 94 93 94 82 72 87 87 88 87 80 77 71
95 95 93 83 79 81 83 85 87 89 89 90 89 91 92 92 92 90 91 85 86 94 95 90 87 79 92 93 92 81 74 66 72 86 88 92 88 83
95 94 94 90 84 86 88 90 90 88 89 88 90 91 88 88 91 92 93 97 94 94 94 91 89 91 94 95 95 91 84 75 70 69 69 73 91 94
95 94 94 90 88 88 91 93 93 90 89 91 91 90 92 94 91 93 94 94 96 94 90 92 88 87 92 94 93 92 90 86 81 82 75 66 64 67
Wind_Speed
9 9 7 5 4 4 4 8 6 7 8 6 4 5 5 4 4 5 6 7 7 6 5 7 6 6 6 8 10 10 11 12 13 14 16 15 17 19
6 9 7 3 5 4 4 5 2 4 5 3 3 5 7 5 5 5 6 6 4 4 4 5 5 6 10 9 10 11 11 12 14 15 15 16 18 19
7 8 6 5 4 4 4 5 4 3 5 3 2 6 5 7 5 4 4 4 2 3 4 4 5 6 8 10 10 11 12 13 14 15 17 18 19 19
11 10 10 7 8 7 5 5 5 5 4 8 5 5 4 5 5 5 4 3 1 2 3 3 4 8 9 11 12 12 12 13 15 16 18 18 18 18
13 12 11 13 10 7 7 5 3 4 4 6 6 3 3 5 3 3 4 4 2 1 2 3 6 8 11 12 12 11 14 15 16 16 16 16 17 20
9 9 12 11 11 10 7 8 7 7 7 8 6 4 2 2 2 3 4 1 1 2 1 2 9 10 11 10 11 14 15 16 14 14 14 18 19 20
9 11 9 9 15 13 9 7 9 6 6 6 5 3 4 4 5 2 2 0 2 1 1 4 5 5 4 7 9 13 15 13 12 13 18 19 20 20
12 9 10 14 13 17 13 11 7 8 7 5 4 6 5 5 4 3 2 1 0 0 3 5 4 5 5 6 14 13 11 10 14 17 18 20 20 22
15 12 11 8 12 11 13 13 10 7 5 5 7 5 6 6 6 4 2 1 1 1 3 5 3 6 7 8 13 11 9 12 18 18 20 21 22 22
13 15 14 13 11 13 12 10 8 7 7 5 7 7 6 6 4 3 3 1 2 1 0 3 3 6 10 8 10 9 10 18 20 20 21 23 21 20
12 12 13 14 21 21 13 11 9 8 12 16 15 15 14 11 7 4 2 1 1 2 2 3 2 6 8 7 5 9 16 20 19 22 22 21 20 22
10 12 19 15 22 21 12 13 11 9 10 10 10 11 10 9 9 5 3 2 0 1 3 5 5 4 4 4 5 8 9 15 21 21 20 20 23 11
11 10 9 22 22 20 15 11 12 12 13 9 8 6 6 5 4 3 3 1 1 2 1 4 3 6 4 7 7 8 8 10 11 12 16 19 22 20
12 9 11 23 22 19 14 17 21 14 8 7 6 5 5 4 3 3 4 2 0 4 6 3 3 4 5 8 8 6 9 9 9 9 10 15 20 21
11 16 23 22 21 16 17 20 17 8 7 7 6 5 4 3 3 2 2 3 3 3 3 4 4 5 5 7 9 9 11 7 9 9 11 12 12 11
21 16 15 15 15 12 13 12 7 7 7 7 6 6 4 3 3 2 2 4 3 2 3 4 5 5 7 9 9 11 9 8 10 11 11 11 11 11
15 11 9 9 8 8 7 8 7 7 7 6 6 6 4 3 2 2 2 2 3 4 5 4 4 7 8 10 8 8 9 9 10 11 13 12 11 11
12 11 10 9 9 9 8 8 7 8 6 6 6 5 4 3 2 1 2 1 2 3 4 5 7 7 6 5 10 8 8 10 11 11 11 11 13 11
10 9 9 8 8 7 7 7 7 6 7 6 6 5 4 3 3 1 0 1 2 3 4 5 4 3 8 9 8 11 10 11 10 10 9 10 13 14
8 9 8 8 8 8 7 7 7 6 6 6 5 4 3 2 2 2 1 2 3 3 5 5 4 4 5 9 9 11 13 10 9 11 12 11 13 25
8 8 8 8 8 7 7 7 7 6 6 5 4 4 3 3 3 1 2 5 6 3 6 7 7 15 7 6 6 8 10 16 15 12 12 12 11 11
7 8 7 8 8 8 7 7 6 6 5 4 4 4 3 2 1 2 2 3 4 4 6 7 8 6 4 4 9 12 11 10 17 20 19 14 8 8
7 8 7 7 7 7 7 6 6 5 5 4 4 3 2 2 2 3 3 2 3 5 6 7 7 4 4 5 11 9 14 13 9 12 12 15 15 21
Wind_Direction
194 188 205 203 189 181 173 172 153 172 193 182 169 186 167 152 128 119 105 86 84 85 48 25 19 358 350 351 337 343 341 333 334 329 325 327 329 323
184 185 185 177 199 198 189 188 162 148 157 155 176 159 167 150 140 135 111 93 81 79 33 16 6 4 347 338 335 336 331 329 327 323 324 326 321 319
164 176 174 169 170 186 196 171 165 139 132 125 114 149 148 159 145 134 135 130 130 22 356 8 16 353 342 328 328 329 326 328 326 323 322 322 317 312
161 159 157 147 151 164 173 165 159 148 134 137 143 149 146 158 163 162 163 164 104 271 318 87 10 343 337 326 329 328 326 326 324 324 319 314 311 316
160 153 160 153 152 151 143 142 135 121 129 144 136 138 123 166 158 154 186 196 231 330 322 116 351 333 330 327 325 331 329 330 320 312 310 315 322 317
151 162 155 156 147 134 143 128 126 112 119 118 116 128 131 144 162 189 191 167 288 10 140 255 330 325 325 329 332 332 324 316 313 315 327 326 316 311
143 145 152 147 145 143 129 145 133 130 128 131 136 140 155 156 193 171 127 25 15 346 280 316 320 312 314 326 327 324 323 319 322 326 326 318 316 311
152 147 138 141 139 139 135 133 139 138 149 150 156 159 158 154 160 157 146 112 123 164 324 305 289 310 327 332 330 329 321 328 341 326 321 318 316 316
152 144 143 141 138 128 133 125 113 125 141 142 145 145 154 169 148 137 145 209 237 115 305 295 333 322 326 323 332 328 322 331 333 327 323 319 320 316
148 153 142 143 142 132 118 109 104 106 101 105 111 119 122 131 114 100 129 247 270 104 223 278 343 319 317 320 327 325 323 324 324 323 319 319 317 314
145 146 143 139 146 137 130 127 110 103 109 114 116 116 113 114 121 131 136 281 280 147 142 313 324 319 309 306 308 316 315 314 311 314 316 319 319 317
129 136 144 140 147 146 136 133 129 137 123 113 109 95 92 95 86 84 126 169 258 247 143 336 329 347 301 294 295 299 302 300 306 311 314 319 321 314
142 144 142 152 152 151 138 153 154 142 138 125 119 114 107 98 91 91 96 129 177 259 4 356 295 307 276 303 299 283 288 308 306 309 309 311 314 315
147 138 147 154 153 149 154 151 146 133 133 131 128 125 117 107 96 93 88 90 56 283 303 288 259 270 283 296 285 302 304 306 302 307 305 308 310 309
137 143 152 149 152 156 158 151 140 135 138 139 136 125 108 109 103 95 57 22 342 324 344 311 252 275 280 273 286 302 317 316 301 304 310 311 308 305
134 140 141 144 138 146 145 132 137 139 143 137 130 123 123 120 114 88 27 3 343 358 308 272 276 280 284 279 285 289 300 303 303 307 305 300 300 301
135 134 136 127 128 124 119 123 125 128 130 131 132 132 127 122 109 70 74 34 354 321 328 325 312 293 277 272 282 279 291 293 298 306 310 305 302 299
135 138 136 137 136 138 134 134 136 136 134 134 134 136 134 130 125 62 54 298 281 305 312 324 335 339 321 279 259 275 291 304 308 306 306 304 302 301
137 137 136 134 136 135 134 138 141 141 135 137 138 136 131 115 96 110 226 246 286 308 324 332 325 339 330 315 289 281 310 303 304 303 305 300 298 300
132 133 133 134 140 137 138 138 135 139 139 135 132 126 115 118 147 162 175 250 297 324 321 320 313 321 300 310 307 297 302 289 303 306 307 304 291 292
128 127 129 137 134 134 134 135 139 140 138 135 131 129 140 160 172 204 271 317 343 329 324 322 315 313 304 286 290 299 305 308 307 306 306 304 302 306
120 122 127 130 132 132 132 135 139 138 138 137 143 157 180 190 214 276 290 315 322 313 299 298 302 306 299 292 301 301 303 311 315 309 306 287 291 300
119 121 124 124 126 130 132 135 139 145 143 143 159 170 175 210 241 265 283 318 322 313 312 312 313 305 289 290 303 302 306 314 318 319 311 309 296 298